• In Uzbekistan
  • List of Countries
  • For 7 days
  • Water Temperature
  • Satellite Maps
  • Weather Map
  • Weather Widgets
  • user-avatar
    Login

    Hourly Weather Lekawka

    Today, 21 May, Monday

    Time Temperature Precipitation Wind Pressure Humidity
    00:00 +10°C° 0 mm 1 mps 743 mmHg 86%
    01:00 +10°C° 0 mm 1 mps 743 mmHg 87%
    02:00 +9°C° 0 mm 1 mps 743 mmHg 88%
    03:00 +9°C° 0 mm 1 mps 743 mmHg 89%
    04:00 +9°C° 0 mm 1 mps 743 mmHg 90%
    05:00 +9°C° 0 mm 2 mps 743 mmHg 85%
    06:00 +12°C° 0 mm 2 mps 743 mmHg 79%
    07:00 +14°C° 0 mm 3 mps 743 mmHg 71%
    08:00 +16°C° 0 mm 3 mps 743 mmHg 66%
    09:00 +17°C° 0 mm 4 mps 743 mmHg 60%
    10:00 +17°C° 0 mm 5 mps 742 mmHg 55%
    11:00 +19°C° 0 mm 5 mps 742 mmHg 54%
    12:00 +19°C° 0 mm 5 mps 742 mmHg 54%
    13:00 +20°C° 0 mm 4 mps 741 mmHg 53%
    14:00 +20°C° 0.1 mm 4 mps 741 mmHg 57%
    15:00 +19°C° 0.1 mm 4 mps 741 mmHg 60%
    16:00 +19°C° 0.1 mm 4 mps 740 mmHg 63%
    17:00 +17°C° 0 mm 4 mps 740 mmHg 70%
    18:00 +16°C° 0 mm 3 mps 740 mmHg 76%
    19:00 +14°C° 0 mm 3 mps 740 mmHg 82%
    20:00 +13°C° 0 mm 3 mps 740 mmHg 84%
    21:00 +13°C° 0 mm 2 mps 740 mmHg 86%
    22:00 +12°C° 0 mm 2 mps 740 mmHg 88%
    23:00 +10°C° 0 mm 2 mps 739 mmHg 89%

    Tomorrow, 22 May, Tuesday

    Time Temperature Precipitation Wind Pressure Humidity
    00:00 +10°C° 0 mm 2 mps 739 mmHg 90%
    01:00 +9°C° 0 mm 2 mps 739 mmHg 91%
    02:00 +9°C° 0 mm 2 mps 739 mmHg 92%
    03:00 +9°C° 0 mm 2 mps 739 mmHg 93%
    04:00 +9°C° 0 mm 2 mps 739 mmHg 94%
    05:00 +12°C° 0 mm 2 mps 739 mmHg 89%
    06:00 +14°C° 0 mm 2 mps 739 mmHg 84%
    07:00 +16°C° 0 mm 2 mps 739 mmHg 80%
    08:00 +18°C° 0 mm 2 mps 739 mmHg 73%
    09:00 +20°C° 0 mm 2 mps 739 mmHg 66%
    10:00 +23°C° 0 mm 2 mps 739 mmHg 60%
    11:00 +23°C° 0.1 mm 2 mps 739 mmHg 57%
    12:00 +24°C° 0.1 mm 2 mps 739 mmHg 55%
    13:00 +24°C° 0.1 mm 2 mps 739 mmHg 53%
    14:00 +24°C° 0.3 mm 2 mps 738 mmHg 55%
    15:00 +24°C° 0.3 mm 2 mps 738 mmHg 57%
    16:00 +24°C° 0.3 mm 2 mps 738 mmHg 60%
    17:00 +23°C° 0.2 mm 2 mps 738 mmHg 67%
    18:00 +20°C° 0.2 mm 2 mps 738 mmHg 74%
    19:00 +19°C° 0.2 mm 2 mps 738 mmHg 81%
    20:00 +18°C° 0 mm 2 mps 739 mmHg 84%
    21:00 +17°C° 0 mm 2 mps 739 mmHg 87%
    22:00 +16°C° 0 mm 2 mps 739 mmHg 91%
    23:00 +16°C° 0 mm 2 mps 739 mmHg 91%

    Day after tomorrow, 23 May, Wednesday

    Time Temperature Precipitation Wind Pressure Humidity
    00:00 +15°C° 0 mm 2 mps 739 mmHg 91%
    01:00 +15°C° 0 mm 2 mps 739 mmHg 91%
    02:00 +15°C° 0.2 mm 2 mps 739 mmHg 91%
    03:00 +15°C° 0.2 mm 1 mps 740 mmHg 91%
    04:00 +15°C° 0.2 mm 1 mps 740 mmHg 91%
    05:00 +16°C° 0.3 mm 1 mps 740 mmHg 90%
    06:00 +18°C° 0.3 mm 1 mps 740 mmHg 89%
    07:00 +19°C° 0.3 mm 1 mps 740 mmHg 87%
    08:00 +20°C° 0.7 mm 1 mps 741 mmHg 83%
    09:00 +21°C° 0.7 mm 1 mps 741 mmHg 78%
    10:00 +23°C° 0.7 mm 1 mps 741 mmHg 74%
    11:00 +23°C° 0.9 mm 1 mps 741 mmHg 72%
    12:00 +24°C° 0.9 mm 1 mps 741 mmHg 70%
    13:00 +24°C° 0.9 mm 2 mps 741 mmHg 68%
    14:00 +24°C° 1.5 mm 1 mps 740 mmHg 70%
    15:00 +24°C° 1.5 mm 1 mps 740 mmHg 73%
    16:00 +23°C° 1.5 mm 1 mps 740 mmHg 75%
    17:00 +22°C° 0.8 mm 1 mps 740 mmHg 80%
    18:00 +20°C° 0.8 mm 2 mps 740 mmHg 84%
    19:00 +19°C° 0.8 mm 2 mps 740 mmHg 88%
    20:00 +18°C° 0.3 mm 2 mps 740 mmHg 90%
    21:00 +17°C° 0.3 mm 2 mps 741 mmHg 92%
    22:00 +16°C° 0.3 mm 2 mps 741 mmHg 94%
    23:00 +16°C° 0.4 mm 2 mps 741 mmHg 95%

    24 May, Thursday

    Time Temperature Precipitation Wind Pressure Humidity
    00:00 +16°C° 0.4 mm 2 mps 741 mmHg 96%
    01:00 +15°C° 0.4 mm 2 mps 741 mmHg 97%
    02:00 +16°C° 0.6 mm 2 mps 741 mmHg 97%
    03:00 +16°C° 0.6 mm 2 mps 741 mmHg 97%
    04:00 +16°C° 0.6 mm 2 mps 741 mmHg 98%
    05:00 +16°C° 0.4 mm 3 mps 741 mmHg 97%
    06:00 +17°C° 0.4 mm 3 mps 741 mmHg 96%
    07:00 +17°C° 0.4 mm 3 mps 741 mmHg 95%
    08:00 +18°C° 0.3 mm 3 mps 741 mmHg 92%
    09:00 +18°C° 0.3 mm 4 mps 741 mmHg 90%
    10:00 +19°C° 0.3 mm 4 mps 742 mmHg 88%
    11:00 +19°C° 0.4 mm 4 mps 741 mmHg 86%
    12:00 +20°C° 0.4 mm 5 mps 741 mmHg 85%
    13:00 +20°C° 0.4 mm 5 mps 741 mmHg 84%
    14:00 +20°C° 0.3 mm 5 mps 741 mmHg 83%
    15:00 +20°C° 0.3 mm 5 mps 741 mmHg 82%
    16:00 +21°C° 0.3 mm 5 mps 741 mmHg 81%
    17:00 +20°C° 0.2 mm 4 mps 741 mmHg 84%
    18:00 +19°C° 0.2 mm 4 mps 741 mmHg 87%
    19:00 +18°C° 0.2 mm 3 mps 741 mmHg 90%
    20:00 +17°C° 0.1 mm 3 mps 741 mmHg 92%
    21:00 +16°C° 0.1 mm 2 mps 742 mmHg 93%
    22:00 +15°C° 0.1 mm 2 mps 742 mmHg 95%
    23:00 +15°C° 0 mm 2 mps 742 mmHg 95%

    25 May, Friday

    Time Temperature Precipitation Wind Pressure Humidity
    00:00 +15°C° 0 mm 2 mps 742 mmHg 95%
    01:00 +15°C° 0 mm 1 mps 742 mmHg 95%
    02:00 +14°C° 0 mm 1 mps 742 mmHg 95%
    03:00 +14°C° 0 mm 1 mps 742 mmHg 95%
    04:00 +14°C° 0 mm 2 mps 742 mmHg 95%
    05:00 +15°C° 0 mm 2 mps 742 mmHg 93%
    06:00 +16°C° 0 mm 3 mps 742 mmHg 90%
    07:00 +18°C° 0 mm 3 mps 743 mmHg 87%
    08:00 +19°C° 0 mm 4 mps 743 mmHg 81%
    09:00 +20°C° 0 mm 4 mps 743 mmHg 76%
    10:00 +22°C° 0 mm 5 mps 743 mmHg 70%
    11:00 +22°C° 0.1 mm 5 mps 743 mmHg 67%
    12:00 +23°C° 0.1 mm 5 mps 743 mmHg 64%
    13:00 +25°C° 0.1 mm 5 mps 743 mmHg 60%
    14:00 +23°C° 0 mm 5 mps 743 mmHg 61%
    15:00 +23°C° 0 mm 5 mps 743 mmHg 62%
    16:00 +23°C° 0 mm 5 mps 743 mmHg 62%
    17:00 +22°C° 0 mm 4 mps 743 mmHg 68%
    18:00 +20°C° 0 mm 4 mps 743 mmHg 74%
    19:00 +19°C° 0 mm 3 mps 743 mmHg 80%
    20:00 +18°C° 0 mm 3 mps 743 mmHg 84%
    21:00 +17°C° 0 mm 3 mps 743 mmHg 87%
    22:00 +15°C° 0 mm 2 mps 744 mmHg 91%
    23:00 +15°C° 0 mm 2 mps 744 mmHg 92%

    26 May, Saturday

    Time Temperature Precipitation Wind Pressure Humidity
    00:00 +14°C° 0 mm 2 mps 744 mmHg 93%
    01:00 +14°C° 0 mm 2 mps 744 mmHg 93%
    02:00 +14°C° 0 mm 2 mps 744 mmHg 94%
    03:00 +13°C° 0 mm 2 mps 744 mmHg 95%
    04:00 +13°C° 0 mm 2 mps 744 mmHg 95%
    05:00 +13°C° 0 mm 3 mps 744 mmHg 90%
    06:00 +14°C° 0 mm 4 mps 745 mmHg 85%
    07:00 +17°C° 0 mm 4 mps 745 mmHg 80%
    08:00 +17°C° 0 mm 5 mps 745 mmHg 75%
    09:00 +19°C° 0 mm 5 mps 745 mmHg 70%
    10:00 +20°C° 0 mm 6 mps 745 mmHg 66%
    11:00 +21°C° 0 mm 6 mps 745 mmHg 65%
    12:00 +22°C° 0 mm 6 mps 745 mmHg 64%
    13:00 +22°C° 0 mm 6 mps 745 mmHg 63%
    14:00 +22°C° 0 mm 6 mps 745 mmHg 64%
    15:00 +22°C° 0 mm 6 mps 744 mmHg 66%
    16:00 +22°C° 0 mm 5 mps 744 mmHg 67%
    17:00 +20°C° 0 mm 5 mps 744 mmHg 73%
    18:00 +19°C° 0 mm 4 mps 744 mmHg 78%
    19:00 +18°C° 0 mm 4 mps 744 mmHg 84%
    20:00 +17°C° 0 mm 3 mps 744 mmHg 87%
    21:00 +14°C° 0 mm 3 mps 745 mmHg 89%
    22:00 +13°C° 0 mm 3 mps 745 mmHg 91%
    23:00 +14°C° 0 mm 2 mps 745 mmHg 92%
    Show more